Torna al catalogo

STARLINK-30348

AttivoComunicazioniVLEO
NORAD 57712·PAYLOAD·🇺🇸 United States

Lanciato Aug 27, 2023 da Cape Canaveral Space Force Station

Loading…

Prossimi Passaggi (prossime 24 ore)

TLE

AggiornatoSource: CelesTrak SupGP

Epoca: Sep 14, 2026, 22:33 UTC

1 57712C 23129Q   26257.94006944 -.00014293  00000+0 -51784-3 0  2572
2 57712  42.9993 129.2142 0001306 270.4427 132.7940 15.27577076    11

Traccia STARLINK-30348 in tempo reale con AllMySat

Download on the App Store